Content
SEND FEEDBACK

Daily
Averages
Monthly
Summary
United States of America

PYGA BEACH, GUAM


Home > North America > United States > Guam
Elevation: 6 meters     Latitude: 13 17N     Longitude: 144 39E

WEATHER
 
SELECT A DAY
Number of Records: 341,964;   Date Range: 1/1/95 - 7/26/14
 
SHARE

PRINT THIS DATA

[ ← Previous Day ]
WEATHER ALMANAC - 18 JANUARY, 2013
[ Next Day → ]
[ °F ]   °C
Weather ElementAverageHighLow
Temperature25 °C29.1 °C (12:55 pm)20 °C (6:14 am)
Dewpoint20.6 °C23 °C (11:43 am)17 °C (6:19 am)
Humidity76.8 %88 % (5:53 am)66 % (1:55 pm)
Barometer1010.5 hPa1012.2 hPa (8:55 pm)1009.1 hPa (2:01 am)
Wind Speed18.3 km/h24.1 km/h (1:36 am)
Wind Gust33.3 km/h (11:43 am)
Weather ElementAverage
Visibility15.9 km
Wind DirectionENE (64.8 °)

Weather ElementTotal
Precipitation---
Cooling Degree Days6.2 (Base 18.3)
Growing Degree Days14.6 (Base 10)
Averaged from 44 records on 18 January, 2013
WEATHER CONDITIONS BREAKOUT
WIND DIRECTION BREAKOUT
WEATHER BY HOUR - 18 JANUARY, 2013
[ °F ]   °C
Local TimeTemperatureDewpointHumidityBarometerVisibilityWind DirectionWind SpeedGust SpeedPrecipitationEventsConditions
1:23 AM25 °C21 °C78 %1009.8 hPa16.1 kmENE (70°)22.2 km/hMostly Cloudy
1:30 AM25 °C21 °C78 %1009.5 hPa16.1 kmENE (70°)22.2 km/hMostly Cloudy
1:36 AM25 °C21 °C78 %1009.5 hPa16.1 kmENE (70°)24.1 km/hMostly Cloudy
1:53 AM25 °C21 °C78 %1009.5 hPa16.1 kmENE (70°)20.4 km/hMostly Cloudy
1:55 AM24.3 °C20.5 °C79 %1009.5 hPa16.1 kmENE (60°)20.4 km/hMostly Cloudy
2:01 AM24 °C21 °C83 %1009.1 hPa16.1 kmENE (70°)18.5 km/hMostly Cloudy
2:06 AM24 °C20 °C78 %1009.1 hPa16.1 kmENE (60°)20.4 km/hMostly Cloudy
2:55 AM22.8 °C19.1 °C80 %1009.1 hPa16.1 kmENE (70°)13 km/hMostly Cloudy
3:55 AM25 °C22 °C83 %1009.5 hPa16.1 kmENE (70°)14.8 km/hScattered Clouds
4:55 AM22.2 °C19 °C82 %1009.8 hPa16.1 kmEast (80°)18.5 km/hClear
5:53 AM21 °C19 °C88 %1009.5 hPa16.1 kmENE (60°)16.7 km/hMostly Cloudy
5:55 AM21.5 °C18.7 °C84 %1009.8 hPa16.1 kmENE (60°)14.8 km/hMostly Cloudy
6:14 AM20 °C18 °C88 %1009.8 hPa16.1 kmENE (60°)14.8 km/hScattered Clouds
6:16 AM20 °C18 °C88 %1010.2 hPa16.1 kmENE (60°)14.8 km/hMostly Cloudy
6:19 AM21 °C17 °C78 %1010.2 hPa16.1 kmENE (60°)16.7 km/hScattered Clouds
6:55 AM22 °C18.5 °C80 %1010.5 hPa16.1 kmENE (60°)14.8 km/hClear
7:46 AM22 °C19 °C83 %1010.8 hPa16.1 kmENE (70°)20.4 km/hMostly Cloudy
7:55 AM22.3 °C18 °C77 %1011.2 hPa16.1 kmENE (70°)20.4 km/hMostly Cloudy
8:01 AM22 °C18 °C78 %1011.2 hPa16.1 kmENE (70°)20.4 km/hScattered Clouds
8:04 AM22 °C18 °C78 %1011.2 hPa16.1 kmENE (70°)16.7 km/hMostly Cloudy
8:15 AM23 °C19 °C78 %1011.2 hPa16.1 kmENE (70°)24.1 km/hScattered Clouds
8:23 AM26 °C22 °C78 %1011.2 hPa16.1 kmENE (60°)20.4 km/hMostly Cloudy
8:55 AM25 °C21.9 °C83 %1011.9 hPa16.1 kmEast (90°)18.5 km/hOvercast
8:59 AM26 °C21 °C74 %1011.9 hPa16.1 kmEast (80°)18.5 km/hMostly Cloudy
9:55 AM28 °C21.9 °C69 %1011.5 hPa16.1 kmEast (90°)22.2 km/hPartly Cloudy
10:55 AM28.8 °C22.1 °C67 %1011.2 hPa16.1 kmEast (90°)22.2 km/hClear
11:43 AM29 °C23 °C70 %1010.5 hPa16.1 kmEast (80°)20.4 km/h33.3 km/hMostly Cloudy
11:46 AM29 °C23 °C70 %1010.5 hPa16.1 kmENE (70°)18.5 km/h33.3 km/hScattered Clouds
11:55 AM28.9 °C22.9 °C70 %1010.5 hPa16.1 kmEast (90°)18.5 km/hScattered Clouds
12:55 PM29.1 °C22.5 °C67 %1009.8 hPa16.1 kmEast (90°)22.2 km/hPartly Cloudy
1:55 PM29 °C22.1 °C66 %1009.1 hPa16.1 kmEast (80°)18.5 km/hPartly Cloudy
2:55 PM28.3 °C21.4 °C66 %1009.1 hPa16.1 kmENE (60°)20.4 km/hClear
3:55 PM28 °C21.1 °C66 %1009.5 hPa16.1 kmENE (70°)14.8 km/hClear
4:55 PM27.4 °C21.3 °C69 %1010.2 hPa16.1 kmEast (80°)14.8 km/hClear
5:55 PM26.7 °C21.4 °C73 %1010.5 hPa11.3 kmNE (50°)13 km/hClear
6:55 PM26 °C21.8 °C78 %1011.2 hPa16.1 kmNE (40°)13 km/hClear
7:27 PM26 °C22 °C78 %1011.9 hPa16.1 kmNE (40°)14.8 km/hMostly Cloudy
7:35 PM26 °C21 °C74 %1011.9 hPa16.1 kmNE (50°)16.7 km/hScattered Clouds
7:55 PM25.4 °C20.7 °C75 %1011.9 hPa16.1 kmENE (60°)16.7 km/hPartly Cloudy
8:55 PM25.8 °C21.5 °C77 %1012.2 hPa16.1 kmNE (40°)18.5 km/hMostly Cloudy
9:55 PM25.7 °C21.1 °C76 %1012.2 hPa16.1 kmNNE (30°)18.5 km/hPartly Cloudy
10:55 PM25.9 °C21.7 °C78 %1012.2 hPa16.1 kmNE (40°)20.4 km/hOvercast
10:57 PM26 °C22 °C78 %1012.2 hPa16.1 kmNE (40°)22.2 km/hMostly Cloudy
11:55 PM25.5 °C21.4 °C78 %1011.9 hPa16.1 kmNNE (30°)14.8 km/hClear
Hourly data recorded from PGUA, located 0 kilometers away from Pyga Beach, Guam







STORIES FROM OUR PARTNERS